Location: Newark
(43.9494°N, 6.8108°E)
Time: 17:43:42
(UTC+00:00)

Envisat - Pass Details

Date: 18 September 2019
Orbit: 764 x 766 km, 98.1° (Epoch: 20 October)

Event Time Altitude Azimuth Distance (km) Brightness Sun altitude
Rises 18:57:03 0° 209° (SSW) 3,220 6.4 -14.7°
Reaches altitude 10° 19:00:07 10° 228° (SW) 2,300 5.9 -15.3°
Maximum altitude 19:03:26 17° 270° (W) 1,846 6.0 -15.8°
Drops below altitude 10° 19:06:46 10° 311° (NW) 2,311 6.6 -16.4°
Sets 19:09:53 0° 331° (NNW) 3,243 7.0 -16.9°
